TimeEST,TemperatureF,Dew PointF,Humidity,Sea Level PressureIn,VisibilityMPH,Wind Direction,Wind SpeedMPH,Gust SpeedMPH,PrecipitationIn,Events,Conditions,WindDirDegrees,DateUTC
12:51 AM,27.0,25.0,92,30.28,8.0,Calm,Calm,-,N/A,,Clear,0,2012-12-12 05:51:00
1:51 AM,27.0,25.0,92,30.30,7.0,Calm,Calm,-,N/A,,Clear,0,2012-12-12 06:51:00
2:51 AM,26.1,25.0,96,30.32,5.0,Calm,Calm,-,N/A,,Clear,0,2012-12-12 07:51:00
3:51 AM,25.0,23.0,92,30.33,6.0,Calm,Calm,-,N/A,,Clear,0,2012-12-12 08:51:00
4:48 AM,24.8,23.0,93,30.31,5.0,Calm,Calm,-,N/A,,Partly Cloudy,0,2012-12-12 09:48:00
4:51 AM,24.1,23.0,96,30.33,2.0,Calm,Calm,-,N/A,,Clear,0,2012-12-12 09:51:00
5:51 AM,24.1,21.9,91,30.35,6.0,Calm,Calm,-,N/A,,Clear,0,2012-12-12 10:51:00
6:04 AM,23.0,21.2,93,30.34,1.5,Calm,Calm,-,N/A,,Clear,0,2012-12-12 11:04:00
6:13 AM,24.8,21.2,86,30.35,0.2,Calm,Calm,-,N/A,Fog,Light Freezing Fog,0,2012-12-12 11:13:00
6:51 AM,25.0,24.1,96,30.38,0.2,Calm,Calm,-,N/A,Fog,Light Freezing Fog,0,2012-12-12 11:51:00
7:51 AM,24.1,23.0,96,30.41,0.2,Calm,Calm,-,N/A,Fog,Light Freezing Fog,0,2012-12-12 12:51:00
8:51 AM,25.0,24.1,96,30.42,0.2,Calm,Calm,-,N/A,Fog,Light Freezing Fog,0,2012-12-12 13:51:00
9:32 AM,26.6,26.6,100,30.40,0.5,Calm,Calm,-,N/A,,Mist,0,2012-12-12 14:32:00
9:41 AM,28.4,28.4,100,30.41,0.5,Calm,Calm,-,N/A,Fog,Light Freezing Fog,0,2012-12-12 14:41:00
9:51 AM,28.0,28.0,100,30.43,2.5,Calm,Calm,-,N/A,,Scattered Clouds,0,2012-12-12 14:51:00
10:18 AM,30.2,28.4,93,30.41,4.0,Calm,Calm,-,N/A,,Clear,0,2012-12-12 15:18:00
10:51 AM,32.0,28.0,85,30.44,6.0,Calm,Calm,-,N/A,,Clear,0,2012-12-12 15:51:00
11:51 AM,34.0,27.0,75,30.42,10.0,NE,5.8,-,N/A,,Clear,40,2012-12-12 16:51:00
12:51 PM,39.0,26.1,60,30.39,10.0,Calm,Calm,-,N/A,,Clear,0,2012-12-12 17:51:00
1:51 PM,39.9,27.0,60,30.37,10.0,NNE,3.5,-,N/A,,Clear,20,2012-12-12 18:51:00
2:51 PM,41.0,26.1,55,30.36,10.0,Variable,4.6,-,N/A,,Clear,0,2012-12-12 19:51:00
3:51 PM,42.1,26.1,53,30.36,10.0,Calm,Calm,-,N/A,,Clear,0,2012-12-12 20:51:00
4:51 PM,39.0,25.0,57,30.38,10.0,NE,4.6,-,N/A,,Clear,40,2012-12-12 21:51:00
5:51 PM,37.0,25.0,62,30.39,10.0,NE,3.5,-,N/A,,Clear,50,2012-12-12 22:51:00
6:51 PM,36.0,24.1,62,30.39,10.0,NE,3.5,-,N/A,,Clear,40,2012-12-12 23:51:00
7:51 PM,35.1,24.1,64,30.40,10.0,Calm,Calm,-,N/A,,Clear,0,2012-12-13 00:51:00
8:51 PM,30.2,26.6,86,30.38,10.0,Calm,Calm,-,N/A,,Clear,0,2012-12-13 01:51:00
9:51 PM,28.9,26.1,89,30.40,10.0,Calm,Calm,-,N/A,,Clear,0,2012-12-13 02:51:00
10:51 PM,30.2,26.6,86,30.36,10.0,North,3.5,-,N/A,,Clear,360,2012-12-13 03:51:00
11:51 PM,28.9,27.0,92,30.38,8.0,Calm,Calm,-,N/A,,Clear,0,2012-12-13 04:51:00